{"data":{"norad_id":64525,"intl_designator":"2025-134AB","name":"KUIPER-00065","alt_names":[],"object_type":"PAYLOAD","status":"ACTIVE","operator":null,"country":"US","launch_date":"2025-06-23","launch_site_code":"AFETR","launch_vehicle":null,"mission":null,"orbit_class":"UNKNOWN","rcs_meters":null,"size_class":null,"mass_kg":null,"dimensions":null,"purposes":[],"wikipedia_slug":null,"has_3d_model":false,"image_url":null,"decayed_at":null,"tle_current":{"epoch":"2026-09-21T17:29:33.151488Z","epoch_age_seconds":75663,"freshness":"FRESH","line1":"1 64525U 25134AB  26264.72885592  .00001596  00000+0  23822-3 0  9993","line2":"2 64525  51.9035  93.8636 0000697 113.0502 247.0534 14.79939265 68987","mean_motion":14.79939265,"eccentricity":6.97e-5,"inclination_deg":51.9035,"raan_deg":93.8636,"arg_perigee_deg":113.0502,"mean_anomaly_deg":247.0534,"bstar":0.00023822,"rev_number":6898,"period_min":97.301290266125,"perigee_km":629.02741878844,"apogee_km":630.00428559603,"semimajor_km":7007.6528521922,"source":"CELESTRAK","updated_at":"2026-09-22T09:00:29.813633Z"}}}